Cosmos 1939 Rocket - Orbit

View from above orbital plane
View from above orbital plane
View from above satellite
View from above satellite

Ground track
Ground track

The orbit data is extracted from the following two-line orbital elements,

1 19046U 88032B   13143.75972099  .00002171  00000-0  18633-3 0  5396
2 19046 097.7045 199.2054 0034402 328.9756 030.9433 14.98100983349873
Epoch (UTC): 23 May 2013 18:13:59
Eccentricity: 0.0034402
inclination: 97.7045°
perigee height: 549 km
apogee height: 596 km
right ascension of ascending node: 199.2054°
argument of perigee: 328.9756°
revolutions per day: 14.98100983
mean anomaly at epoch: 30.9433°
orbit number at epoch: 34987

The dashed part of the orbit path shows where the satellite is in the earth's shadow,  

Developed and maintained by Chris Peat, Heavens-Above GmbH. Please read the updated FAQ before sending e-mail. Imprint. DLR